RH
49 51 52 48 46 44 44 42 41 39 37 34 32 33 38 42 42 39 33 27 23 19 17 16 16 16 16 15 13 11 10 9 9 10 11 11 11 11 11 11 12 12 13 13 13 13 12 14 17 19 17 20 19 17 17 19 19 20 19 19 20 22 22 22 21 19 18 17 16 16 15 15 15 15 15 16 16 16 16 15 16 16 17 18 19 20 21 23 24 24 24 24 24 23 22 25 29 31 32 32 31 31 30
50 53 54 49 46 45 44 42 40 38 35 32 31 33 38 40 41 39 35 30 25 22 19 18 17 17 18 16 14 12 10 10 10 11 11 12 12 12 12 12 12 13 14 14 13 13 12 16 16 16 15 20 19 18 18 20 21 21 21 24 25 25 26 23 21 20 20 20 20 19 16 16 15 16 16 16 16 16 16 15 16 16 17 18 18 19 19 21 23 24 23 23 23 23 22 25 28 31 31 31 31 30 30
52 55 55 50 47 46 44 41 39 37 34 31 31 33 37 38 39 38 36 33 29 25 22 20 19 19 20 19 17 14 11 11 11 11 12 12 12 12 12 12 13 13 14 13 13 13 12 14 15 16 15 17 17 18 18 20 21 22 24 25 26 26 26 22 21 21 20 19 20 19 16 15 15 15 16 16 16 16 16 16 16 16 17 17 18 18 18 20 21 21 22 22 23 23 23 24 26 28 29 30 30 28 27
54 56 55 50 48 46 44 41 39 37 34 31 31 33 35 36 36 36 35 34 32 30 26 23 21 21 22 22 20 17 13 12 12 12 12 13 13 13 13 13 13 13 13 13 13 13 13 13 15 16 15 15 16 17 18 19 21 23 24 24 24 24 24 22 22 21 19 18 18 17 16 16 15 15 16 16 16 16 16 16 16 16 17 17 18 18 18 19 20 20 20 21 22 23 24 24 24 25 26 28 27 25 24
55 56 54 51 49 47 44 41 39 37 34 31 32 33 35 35 34 33 32 33 33 32 31 28 25 23 23 25 24 21 17 14 13 13 13 13 13 13 13 13 13 13 13 13 13 13 13 13 15 17 16 17 18 20 20 19 21 22 22 23 24 25 25 25 25 23 21 19 18 17 16 16 16 16 15 16 16 16 16 16 17 17 17 18 18 19 19 20 20 21 21 22 23 24 25 25 25 25 25 26 25 24 23
55 55 53 51 49 46 43 41 40 37 34 32 32 33 34 34 33 32 30 30 30 31 33 31 30 28 26 27 27 25 21 18 16 15 14 14 14 14 14 14 14 13 13 13 13 14 14 16 18 19 18 20 22 22 22 22 24 26 25 26 28 30 30 30 28 25 23 19 18 18 17 17 17 17 17 16 16 16 16 17 17 17 18 18 19 20 20 21 21 22 22 23 24 25 25 26 26 26 26 26 26 25 24
56 55 52 50 48 46 43 41 40 37 34 32 32 32 34 34 33 31 29 27 27 28 30 32 32 32 30 30 30 28 25 22 19 18 16 15 14 14 14 14 14 14 14 14 14 14 17 21 20 19 19 20 21 22 22 24 25 27 28 29 29 30 31 31 29 26 23 20 19 19 18 18 18 18 18 18 17 17 17 17 18 18 19 19 20 22 23 24 25 26 25 26 26 26 26 26 27 27 27 27 27 27 27
57 55 52 50 48 45 43 41 39 37 34 33 32 33 34 33 33 32 29 26 25 24 25 28 30 31 32 33 32 31 28 25 23 21 19 17 15 15 15 15 14 14 14 14 14 15 17 20 21 21 20 19 20 21 23 24 26 27 27 29 28 28 32 31 30 27 22 20 20 20 19 19 19 20 20 18 18 18 18 18 19 19 20 21 23 25 27 29 30 30 33 33 31 30 29 29 29 29 29 29 29 29 30
57 55 53 49 47 45 43 41 39 37 35 33 33 34 34 33 33 31 29 27 24 23 22 23 25 27 30 32 32 31 28 26 25 23 21 19 17 15 15 15 14 14 15 14 15 15 16 18 21 23 22 20 19 21 23 25 25 25 27 26 26 26 29 29 29 27 22 21 21 20 20 20 21 21 21 20 19 19 19 19 20 21 22 23 25 28 29 33 36 39 41 38 36 34 34 33 33 33 32 32 32 32 34
57 55 53 49 46 44 43 41 40 38 36 34 34 34 34 33 32 31 29 27 24 23 21 21 21 22 25 27 29 28 27 25 25 24 23 20 18 16 15 15 15 15 15 15 15 16 16 18 20 22 23 20 20 21 24 25 25 25 25 23 22 23 24 24 24 24 22 21 21 21 21 21 21 21 21 23 22 21 21 21 22 22 23 25 27 29 32 34 38 41 41 38 37 37 37 37 38 38 38 38 38 38 38
56 55 52 49 47 44 43 42 40 38 37 35 35 35 33 32 32 31 29 27 25 23 21 20 20 20 22 24 25 25 24 24 24 24 24 21 19 17 16 15 15 15 15 15 15 16 17 17 20 23 24 21 20 20 22 23 24 24 23 21 21 22 24 24 24 23 23 22 21 21 21 21 21 21 22 23 24 24 23 23 24 24 25 26 28 30 31 34 37 40 40 39 39 40 39 40 41 42 43 43 43 42 41
56 55 52 50 47 45 43 42 40 38 37 36 36 35 33 33 32 32 30 27 25 23 22 21 20 20 21 22 23 23 22 23 24 24 24 22 20 18 16 16 16 16 16 16 16 16 17 18 21 24 24 21 20 21 22 23 25 25 25 23 22 24 26 26 25 25 24 23 22 21 22 22 22 23 23 23 24 25 25 26 26 26 27 28 29 31 32 34 36 38 39 40 41 41 41 41 41 42 43 44 44 43 42
56 54 52 50 47 45 44 42 40 38 37 37 36 35 33 33 33 33 31 28 26 24 22 21 21 21 22 22 22 22 22 23 24 24 24 22 20 19 17 17 16 16 17 17 17 17 18 19 20 22 22 22 21 21 21 23 25 26 25 24 24 26 29 28 27 26 25 25 23 23 22 23 23 24 24 25 25 26 26 27 27 28 29 30 31 32 34 35 37 38 40 41 41 41 41 41 41 41 42 43 43 42 42
56 55 52 50 47 45 44 42 40 38 37 37 36 34 33 33 33 33 32 29 27 25 23 22 22 22 22 23 23 23 22 23 24 25 24 23 22 20 19 18 17 17 17 17 18 18 19 20 21 22 22 22 22 21 21 23 24 24 23 24 26 28 30 30 29 28 27 26 25 24 24 24 25 26 26 26 27 27 27 28 28 29 30 31 32 34 35 37 39 40 41 42 42 42 41 41 41 41 42 43 44 44 43
57 56 53 50 48 46 44 42 40 39 38 37 36 35 33 33 34 34 33 31 28 26 24 23 23 24 24 24 24 23 23 23 24 25 25 25 23 22 21 20 19 18 18 18 19 19 20 21 21 22 22 23 22 22 21 22 22 22 22 24 27 29 30 31 31 30 29 28 27 26 25 25 26 27 27 28 28 28 29 29 30 30 31 32 33 35 37 39 40 41 42 42 42 42 43 43 43 43 44 44 45 45 45
59 57 54 51 48 46 45 43 41 39 38 37 36 35 34 33 34 34 34 32 29 27 25 25 25 25 25 25 25 24 24 24 25 26 26 26 26 25 24 22 21 20 20 20 20 20 21 21 22 22 22 22 22 22 22 23 23 23 23 24 25 27 30 31 31 31 32 31 30 28 27 27 27 28 28 29 29 30 30 31 31 32 32 33 35 36 38 40 41 42 43 43 43 43 44 44 44 45 45 46 46 46 46
60 57 54 52 49 47 45 44 42 40 38 37 36 35 34 33 34 35 35 33 30 28 27 26 26 26 26 26 26 26 25 26 26 27 28 28 28 27 27 26 24 23 22 21 21 21 21 21 22 22 22 22 23 23 23 23 23 23 24 25 26 28 32 34 34 32 32 34 33 31 29 28 28 28 29 30 30 30 31 31 32 33 34 35 36 38 39 40 41 42 43 44 44 44 45 45 45 46 46 47 47 47 47
61 57 54 53 50 48 48 49 46 42 38 38 37 36 34 33 34 35 35 34 31 29 28 27 27 27 27 27 27 27 27 27 28 28 30 30 30 30 29 28 27 26 25 24 23 23 22 22 22 22 22 23 23 23 23 24 24 24 25 25 27 29 33 35 35 34 32 33 34 34 31 29 29 29 29 30 30 31 31 32 32 33 34 35 36 38 39 40 41 42 43 44 44 44 45 45 46 47 47 47 47 47 47
62 58 55 54 51 49 49 52 49 43 39 38 37 36 35 34 34 35 35 34 32 30 29 28 28 28 29 29 29 29 29 29 29 30 31 32 33 33 32 31 31 30 29 28 27 26 25 24 24 23 23 23 23 23 23 23 24 24 24 25 26 28 32 34 35 35 35 33 34 35 33 31 30 30 30 30 29 30 30 31 31 32 33 34 35 36 37 38 40 41 42 43 44 45 45 46 47 47 47 48 48 48 48
62 58 56 55 52 50 50 50 47 43 39 38 37 36 35 34 34 35 35 35 33 31 30 29 29 29 30 30 31 31 31 31 31 32 33 34 35 35 35 34 33 33 32 31 30 29 28 27 27 26 26 25 25 24 24 24 24 24 25 25 26 27 29 32 34 35 35 35 34 34 34 33 33 33 33 31 30 29 29 29 30 30 31 32 33 34 35 36 38 39 41 42 43 45 46 46 47 47 47 48 49 49 49
63 60 58 56 54 52 50 49 46 43 40 38 38 37 37 35 35 35 36 35 34 32 31 31 31 31 31 31 32 32 32 32 33 33 34 35 36 37 37 36 36 35 34 34 33 33 32 31 30 30 29 28 28 27 27 26 26 25 26 26 27 28 28 30 33 36 36 36 36 34 33 35 37 38 37 33 31 30 30 29 29 30 31 31 31 31 32 34 36 37 39 41 42 44 45 45 46 46 47 48 48 50 50
64 63 61 60 58 56 54 52 49 45 42 39 39 40 40 37 37 37 36 36 35 34 32 32 32 33 32 32 33 34 34 34 34 34 35 36 37 38 39 38 37 37 36 35 35 35 35 35 34 33 32 32 31 30 29 28 28 28 28 28 29 29 30 30 32 35 37 39 38 37 34 36 38 39 38 35 34 33 34 33 33 33 33 32 32 32 33 33 34 36 38 39 41 42 43 44 45 46 47 48 49 50 51
66 64 63 62 60 58 57 56 53 50 47 42 40 41 42 41 40 39 38 37 37 36 34 34 35 35 33 33 34 34 35 35 35 36 36 37 38 39 39 39 39 38 37 37 37 37 37 37 37 37 36 35 34 33 32 31 31 31 31 31 31 31 32 32 33 34 36 40 42 42 40 39 39 39 39 40 41 41 40 40 39 38 37 36 36 35 35 35 36 36 38 39 41 42 43 44 45 46 47 49 50 52 53
68 65 64 62 61 60 58 58 56 54 52 46 42 40 42 42 42 43 42 40 39 39 37 38 37 36 34 34 35 35 36 36 37 37 37 37 38 39 40 40 40 40 39 38 38 38 38 39 40 40 39 38 37 36 35 34 34 34 34 33 33 34 34 34 35 35 37 41 44 47 47 47 46 46 48 49 49 48 47 46 44 42 40 39 39 38 38 38 38 39 39 40 41 43 44 45 46 48 49 51 53 55 56
70 67 65 63 62 61 59 58 57 56 55 50 46 42 41 42 43 45 46 44 42 41 40 40 38 36 35 35 36 36 36 37 38 38 38 38 39 39 40 41 41 41 40 40 39 39 40 40 41 42 42 42 41 40 39 38 38 37 37 37 37 37 38 38 39 39 40 43 46 50 53 53 53 54 55 56 55 54 53 50 47 45 43 43 43 42 42 42 42 42 43 43 44 45 46 47 48 50 52 54 56 57 59
70 69 67 65 64 63 61 59 58 58 56 53 49 45 43 43 44 46 48 46 44 42 41 40 39 37 36 36 37 37 37 38 39 39 39 39 39 40 41 42 42 42 42 42 41 41 41 41 42 43 44 44 44 44 44 43 42 42 42 42 42 42 42 43 44 44 45 46 48 51 55 57 58 59 59 59 58 57 56 53 51 49 49 49 49 48 47 47 47 47 47 47 48 48 49 50 51 52 54 56 57 59 60
70 69 68 67 66 65 63 60 59 59 57 53 47 44 45 44 45 46 48 47 45 43 41 39 37 36 36 37 37 38 38 39 39 40 40 40 40 40 41 42 43 43 43 43 43 43 43 43 43 44 45 46 47 47 48 47 47 46 46 46 46 46 47 47 48 48 49 49 50 51 54 58 60 61 62 61 60 59 58 57 57 57 56 56 55 54 53 52 52 51 51 51 51 51 52 53 53 54 55 56 57 58 60
72 70 69 68 68 67 65 61 59 58 56 53 47 43 43 45 46 46 46 46 45 43 41 39 37 36 37 37 38 38 39 39 40 40 41 41 41 41 41 42 43 44 45 45 45 45 45 45 45 45 46 47 48 49 50 50 50 50 50 49 49 49 49 50 50 50 51 51 52 53 54 57 60 61 62 61 61 61 61 62 63 63 62 61 60 60 58 58 57 56 55 55 55 55 55 55 55 55 56 56 57 58 59
75 72 70 70 69 68 66 63 60 58 56 53 49 44 42 45 47 48 47 46 44 42 41 41 39 37 37 38 38 39 39 39 40 40 41 41 41 41 42 42 43 44 45 46 47 47 47 47 47 47 47 48 49 50 51 52 52 52 52 51 51 51 51 51 51 52 52 53 54 55 56 56 57 58 59 61 62 63 64 65 66 66 64 63 62 62 61 61 60 59 59 58 58 57 57 57 57 57 57 58 58 58 59
79 75 72 71 69 67 65 62 59 56 54 53 50 47 44 43 46 49 50 48 46 44 42 41 40 38 38 38 39 39 39 39 40 40 41 41 42 42 42 42 43 44 45 46 47 48 48 48 48 48 48 49 49 50 51 52 52 52 52 52 52 52 52 52 53 53 54 55 56 57 57 57 57 56 56 59 62 64 66 67 67 67 66 65 64 64 64 63 62 61 61 61 60 60 60 60 60 60 60 61 61 60 60
78 75 70 68 66 65 63 60 56 53 51 50 49 48 46 45 46 48 50 49 47 45 43 40 38 38 39 39 39 39 39 39 39 40 41 41 42 42 42 43 43 44 45 46 48 49 49 49 50 49 49 50 50 51 51 51 52 52 52 52 52 53 53 54 54 55 55 56 57 57 58 57 57 57 58 59 61 63 65 66 67 68 68 67 67 66 66 65 64 64 63 63 63 63 64 64 64 64 64 64 63 62 62
72 69 65 63 61 60 59 58 55 51 49 48 48 48 48 48 48 49 50 49 47 44 42 40 39 39 39 40 40 40 39 39 39 40 40 41 42 42 43 43 43 44 45 46 48 49 50 50 51 51 51 51 52 52 51 51 51 51 51 51 52 52 53 54 55 56 56 57 58 58 58 58 59 59 60 61 62 63 63 64 65 66 67 68 68 67 66 66 65 65 65 65 66 67 68 68 68 68 68 67 66 65 64
71 69 66 63 60 58 58 57 55 52 50 49 47 47 47 48 49 50 50 49 47 45 42 41 40 40 40 40 40 40 39 39 39 40 40 41 42 42 42 43 43 44 45 46 48 49 51 51 52 52 53 53 53 53 52 52 51 51 51 51 52 52 53 54 54 55 56 57 58 58 59 59 60 61 62 63 64 64 64 65 65 65 65 66 66 67 66 66 65 65 66 66 67 69 70 71 71 71 71 70 69 68 67
80 78 74 68 63 59 60 59 58 55 54 52 50 48 48 48 48 49 50 49 47 45 43 42 41 40 40 40 40 40 40 40 40 40 41 41 42 42 42 43 44 44 46 47 49 50 52 53 53 54 54 54 54 54 53 53 53 52 52 52 52 53 54 54 55 55 56 57 58 59 59 60 61 62 63 64 65 65 65 65 66 66 66 66 67 67 67 67 66 66 66 67 69 71 71 72 72 72 72 72 72 71 70
89 86 81 75 69 64 62 62 61 60 59 56 54 51 50 49 49 49 50 49 47 45 43 43 42 41 41 41 41 41 41 41 41 41 42 42 43 43 43 44 44 45 46 48 49 51 53 54 54 55 55 55 55 55 55 54 54 54 54 54 55 55 55 56 56 56 57 58 58 59 60 61 62 63 63 64 64 65 65 66 66 67 67 67 68 68 68 68 67 67 68 69 71 72 72 72 71 71 72 72 72 72 72
91 88 84 79 73 68 64 63 62 62 62 60 57 55 53 51 50 50 50 49 47 46 45 44 44 43 42 42 42 42 43 43 43 43 43 44 45 45 45 45 46 46 47 49 51 52 54 55 55 56 56 56 56 56 56 56 56 56 56 56 57 57 58 58 58 58 58 59 60 61 62 63 64 64 64 64 65 65 66 66 66 67 67 68 69 69 70 69 68 68 68 70 71 72 72 72 71 70 71 71 71 72 72
89 85 80 77 72 66 62 61 61 61 62 61 59 57 56 54 53 52 51 50 49 47 46 46 46 45 44 44 44 44 45 45 45 45 45 46 46 47 48 48 48 48 49 51 52 54 55 56 56 56 56 56 56 56 56 57 57 57 58 58 58 59 60 60 60 60 60 61 62 63 64 65 65 65 65 66 66 66 67 67 67 68 68 69 70 70 71 70 69 68 68 69 69 70 70 70 70 70 70 70 71 71 72
81 78 74 72 69 65 58 56 56 58 60 59 58 57 56 56 55 54 54 53 51 50 49 49 48 48 47 47 47 47 47 48 48 48 48 48 49 49 50 50 50 51 51 52 54 55 56 56 56 56 56 56 56 56 57 57 58 58 58 59 60 61 61 62 62 63 63 64 64 65 66 66 66 66 66 67 67 68 68 69 69 69 69 70 70 71 71 70 70 69 69 69 68 68 68 67 67 68 69 70 71 72 72
72 72 72 70 68 65 60 56 55 55 57 57 57 57 56 56 56 56 57 56 55 53 51 51 51 51 50 50 49 49 49 50 50 50 50 51 51 51 52 52 52 53 53 54 55 55 56 56 56 56 56 56 56 57 58 58 59 59 60 60 61 62 63 64 65 65 66 66 66 67 67 67 67 68 68 69 69 69 69 70 71 71 70 70 70 70 70 70 70 69 69 69 69 68 66 66 65 66 67 69 71 72 73
69 72 73 73 72 69 64 60 57 56 56 57 57 57 57 56 56 57 58 59 57 56 54 54 54 54 53 52 52 51 50 51 52 52 53 53 53 53 53 53 54 54 54 55 55 56 56 55 55 55 56 56 57 58 59 59 60 60 61 62 63 64 65 65 66 66 66 66 67 67 68 69 69 70 70 70 70 70 70 70 71 71 70 70 69 69 68 68 68 69 69 69 69 68 66 65 64 65 65 67 70 73 74
71 73 75 76 76 75 72 68 64 61 59 59 59 59 59 58 58 58 59 61 60 58 56 56 56 56 56 55 54 53 52 52 53 53 54 55 55 55 55 55 55 55 55 55 55 55 55 55 55 55 56 57 58 59 60 61 62 62 63 64 64 65 65 65 65 65 64 65 66 68 68 69 69 69 69 69 69 68 68 69 70 70 69 69 68 67 66 67 67 68 68 69 69 68 66 65 65 65 65 66 68 72 74
76 76 76 78 80 81 80 77 73 69 64 63 63 62 62 60 59 59 61 64 63 62 59 58 58 58 57 57 57 56 55 54 54 55 56 56 57 57 57 56 56 56 56 56 56 55 54 54 54 55 57 58 60 61 63 63 64 64 64 64 64 64 64 64 64 64 65 66 67 68 68 68 68 67 67 67 67 67 67 67 68 68 67 67 66 65 64 64 65 66 68 69 69 68 67 66 65 65 66 66 67 70 72
79 80 80 80 82 84 84 83 80 77 74 70 67 65 63 61 60 60 63 66 67 66 64 62 62 62 61 60 59 59 58 58 57 57 58 58 58 58 58 57 57 57 56 56 56 55 55 55 56 57 58 60 62 63 63 64 63 63 63 63 63 63 63 63 64 66 68 68 68 67 66 66 65 65 65 64 64 64 64 64 65 66 66 65 64 63 62 63 63 65 67 68 69 68 68 66 65 65 66 66 67 69 71
78 82 84 84 84 85 85 85 84 83 82 78 73 67 62 59 58 60 64 68 69 69 67 66 66 66 66 64 63 62 61 62 62 62 62 61 60 59 59 58 58 57 57 56 56 56 56 57 58 59 61 62 63 63 63 62 62 62 62 62 62 63 64 65 66 68 68 68 66 65 64 63 63 62 61 61 62 62 62 62 63 64 65 65 64 63 62 62 62 63 65 66 67 67 66 66 65 65 66 67 67 68 70
77 82 86 87 87 87 86 85 86 86 86 83 78 70 61 57 56 58 62 67 68 67 65 66 68 69 69 67 65 64 65 67 68 68 67 64 63 61 60 59 59 58 57 57 57 57 58 59 60 61 62 63 63 62 61 60 60 60 60 61 62 63 64 65 65 65 64 63 62 61 61 61 60 59 59 60 60 61 61 61 61 63 65 65 64 63 62 62 62 62 63 64 65 65 64 65 65 65 66 67 67 67 69
76 83 87 88 89 89 88 87 88 88 87 85 81 74 64 58 57 58 62 64 64 63 61 65 69 71 71 69 67 67 68 70 72 72 70 67 65 63 62 61 60 59 58 58 58 58 59 60 62 63 63 62 61 60 59 59 59 59 60 61 61 62 63 63 62 61 60 60 60 60 60 59 59 59 59 59 60 61 61 60 60 62 64 64 63 62 62 62 62 62 62 62 63 62 62 63 64 64 65 66 66 66 67
77 83 88 89 90 91 91 91 91 91 90 87 83 77 69 62 60 61 62 63 62 61 62 66 70 72 74 73 71 71 71 72 73 73 71 68 66 65 63 61 60 59 58 59 60 61 63 64 64 64 63 61 60 59 59 59 59 60 61 61 61 61 61 60 59 59 58 59 60 60 60 60 59 59 60 61 62 62 61 60 60 62 63 63 62 61 61 61 61 62 62 62 62 62 62 62 62 63 64 65 65 66 66
81 85 88 89 90 91 92 93 93 92 91 89 85 80 75 68 65 64 65 66 65 66 68 73 76 76 75 75 74 74 74 74 74 74 72 69 67 66 64 63 61 61 61 62 64 66 68 68 68 67 64 63 61 61 61 61 62 63 63 62 61 60 59 59 58 58 59 59 59 60 60 60 60 61 61 62 63 63 61 60 60 61 62 62 61 60 60 60 61 61 62 62 62 62 62 62 61 61 62 63 64 65 65
83 85 86 87 89 90 92 93 93 93 92 90 87 84 81 76 74 73 73 73 73 74 77 80 81 80 78 78 78 77 76 76 76 75 73 71 70 69 67 66 65 64 65 67 69 71 72 71 71 69 67 65 64 63 62 63 63 63 62 60 59 58 57 57 57 58 59 59 59 60 60 61 62 62 63 64 64 63 61 60 60 61 61 60 60 59 59 60 60 61 62 62 63 63 63 62 61 60 60 62 63 64 65
79 80 80 82 85 88 89 90 90 91 91 91 89 87 85 83 81 80 79 80 81 82 84 84 84 83 82 82 82 80 78 77 76 74 72 71 70 70 70 69 69 69 70 70 71 71 71 70 68 66 65 64 63 62 61 61 60 59 58 58 57 57 56 57 57 58 59 59 60 61 62 63 63 64 64 64 64 63 62 61 60 60 59 59 58 58 58 59 60 61 62 63 64 64 63 62 61 60 60 61 62 63 65
73 70 69 72 77 82 87 88 89 89 90 89 89 88 87 85 84 82 81 81 82 83 85 85 84 83 82 82 81 79 78 76 74 71 69 68 68 69 69 69 69 70 71 70 69 68 67 65 63 62 60 60 60 60 60 59 59 58 58 58 58 58 59 59 60 61 62 63 63 64 64 65 65 65 65 64 63 63 62 60 60 59 59 58 58 57 57 58 59 60 62 63 63 63 62 61 60 60 60 62 63 64 64
68 63 60 63 66 72 79 84 87 89 89 90 90 89 89 87 85 82 80 79 79 80 81 82 82 81 79 77 76 75 74 73 71 69 67 67 66 67 69 71 71 71 69 68 67 66 65 64 63 62 61 61 61 61 60 60 60 60 60 61 62 62 63 64 64 65 66 67 67 67 67 66 66 65 64 64 63 62 61 60 60 59 58 58 58 57 57 57 58 59 60 62 62 63 62 61 60 60 61 63 64 65 64
64 59 55 56 58 61 65 70 77 83 87 89 90 90 90 89 87 84 81 78 76 76 76 77 78 78 76 74 72 71 70 71 70 68 66 66 66 67 69 72 73 72 69 71 72 71 68 67 66 64 63 64 64 63 62 62 62 63 63 64 65 66 67 68 68 68 69 69 68 68 68 67 66 65 65 65 64 62 61 61 60 60 59 58 58 57 57 57 57 58 59 60 61 62 62 62 61 61 62 64 65 65 64
62 57 53 53 55 56 57 58 61 66 71 76 80 84 86 86 85 83 79 74 71 69 69 69 70 71 75 74 73 72 72 70 69 68 67 67 68 70 72 73 75 77 79 80 80 77 69 67 67 67 66 66 65 65 64 64 65 65 66 66 67 68 69 69 69 69 69 68 68 68 67 66 66 66 66 66 64 62 62 61 61 60 59 59 58 57 56 56 57 57 58 59 60 60 61 61 62 62 62 63 63 63 63
64 59 54 55 57 59 58 56 54 53 55 59 63 68 72 73 73 71 68 64 61 59 58 60 63 67 74 77 77 76 76 73 71 70 70 70 72 74 76 77 79 81 84 82 79 74 68 66 67 67 66 66 66 66 65 66 66 67 67 68 69 69 70 69 69 68 68 67 67 67 66 66 66 66 67 66 64 63 62 61 61 60 59 58 57 56 56 56 56 57 57 58 59 59 60 61 62 62 63 62 63 63 63
67 63 60 60 63 66 66 59 53 48 48 50 53 56 58 58 58 57 55 54 52 51 51 57 64 72 79 83 82 80 78 76 74 72 72 74 75 77 78 80 81 83 84 82 79 76 73 72 71 70 66 66 67 68 68 68 69 69 69 70 70 71 70 70 69 68 68 67 67 66 66 66 66 66 66 65 64 63 62 61 60 59 58 57 56 56 55 55 56 56 57 58 59 60 60 61 62 63 63 63 64 64 66
67 66 65 66 67 69 69 62 53 46 44 45 48 50 51 51 51 50 49 48 48 50 54 62 72 80 86 86 84 80 78 78 75 73 73 74 76 77 78 79 79 79 82 81 80 79 79 76 75 73 68 67 67 68 69 69 69 70 70 70 70 70 70 69 69 68 67 67 66 66 65 64 64 64 64 63 62 61 60 59 59 58 57 56 56 55 54 55 55 56 57 58 59 60 60 61 62 62 63 64 66 67 69
67 67 67 67 67 66 65 60 54 48 44 45 47 49 51 51 50 48 46 46 48 53 62 71 79 84 86 85 83 81 79 78 77 76 73 73 75 76 79 78 78 78 78 78 78 79 79 77 75 73 70 69 69 69 70 70 70 69 69 69 69 69 69 68 67 67 66 65 65 64 63 62 62 62 62 61 61 60 59 58 58 57 56 56 55 55 55 55 56 57 58 58 59 60 61 62 63 64 66 67 68 69 71
66 66 66 64 62 61 59 57 54 51 48 46 47 49 51 52 50 48 45 45 49 57 67 74 80 84 85 85 85 84 82 80 78 77 75 73 73 73 74 76 78 80 80 79 79 80 80 79 77 74 73 72 71 70 70 71 71 71 70 69 69 68 68 67 66 66 66 65 64 62 62 61 61 61 61 60 60 59 58 58 58 58 58 57 57 57 57 57 58 58 59 59 60 61 63 65 66 68 69 70 71 71 72
63 63 63 61 59 57 56 55 55 54 52 50 48 48 50 51 51 50 48 46 49 55 64 71 78 83 85 86 87 86 85 83 81 78 76 73 71 69 69 72 76 79 81 81 81 81 80 79 77 76 75 74 73 72 71 72 72 72 72 70 69 68 67 67 67 67 66 65 64 63 63 62 62 62 62 61 60 60 59 59 59 59 60 60 60 60 61 61 61 61 61 61 62 64 65 67 68 70 71 71 71 72 72
57 58 58 56 56 56 56 57 57 57 55 53 50 49 49 50 51 52 51 48 49 51 57 64 71 77 84 86 87 87 86 85 83 80 77 73 70 68 68 71 74 78 81 82 83 82 80 78 77 77 77 76 76 74 73 72 71 71 70 69 68 68 68 67 67 67 66 65 65 65 65 64 64 63 64 63 63 62 61 60 60 60 60 61 62 62 62 62 62 62 63 63 64 65 67 68 69 70 70 70 70 71 71